{"data":{"norad_id":66982,"intl_designator":"2025-288Z","name":"STARLINK-36113","alt_names":[],"object_type":"PAYLOAD","status":"ACTIVE","operator":null,"country":"US","launch_date":"2025-12-08","launch_site_code":"AFETR","launch_vehicle":null,"mission":null,"orbit_class":"UNKNOWN","rcs_meters":null,"size_class":null,"mass_kg":null,"dimensions":null,"purposes":["comms"],"wikipedia_slug":null,"has_3d_model":false,"image_url":null,"decayed_at":null,"tle_current":{"epoch":"2026-05-24T19:30:07.219584Z","epoch_age_seconds":91559,"freshness":"FRESH","line1":"1 66982U 25288Z   26144.81258356 -.00026882  00000+0 -97123-3 0  9993","line2":"2 66982  42.9978 313.1811 0000484 264.0597  96.0200 15.27569270 26930","mean_motion":15.2756927,"eccentricity":4.84e-5,"inclination_deg":42.9978,"raan_deg":313.1811,"arg_perigee_deg":264.0597,"mean_anomaly_deg":96.02,"bstar":-0.00097123,"rev_number":2693,"period_min":94.267410865106,"perigee_km":482.7491427457,"apogee_km":483.41330866995,"semimajor_km":6861.2182257078,"source":"CELESTRAK","updated_at":"2026-05-25T13:38:21.427731Z"}}}